Location: Yucca Valley
(34.1140°N, 116.4310°W)
Time: 10:02:35
(UTC-07:00)

Daily predictions for brighter satellites

Satellite Brightness Start Highest point End
(mag) Time Altitude Azimuth Time Altitude Azimuth Time Altitude Azimuth
YAOGAN 1 3.5 18:59:54 10° S 19:04:07 53° W 19:08:21 10° NNW
Cosmos 1709 Rocket 4.3 18:57:56 10° S 19:04:17 79° W 19:10:41 10° N
ATLAS 3B CENTAUR R/B 4.3 18:59:53 10° SW 19:07:28 55° SSE 19:27:32 11° E
Cosmos 1378 3.3 19:05:40 10° N 19:09:21 51° E 19:13:01 10° SSE
Cosmos 1707 2.8 19:06:03 10° N 19:09:58 61° E 19:13:49 10° SSE
Cosmos 1766 4.1 19:07:11 10° SSE 19:10:36 29° E 19:14:01 10° NNE
FALCON 9 R/B 0.8 19:08:30 10° W 19:10:53 87° N 19:15:43 10° E
Cosmos 2369 Rocket 3.9 19:06:32 10° NW 19:11:42 38° WSW 19:16:48 10° S
COSMOS 2406 3.3 19:07:05 10° S 19:12:38 57° ESE 19:18:14 10° NNE
Cosmos 1606 Rocket 4.3 19:08:49 10° SSW 19:13:05 57° W 19:17:22 10° N
Resurs 01 Rocket 3.5 19:15:42 11° E 19:17:16 13° ENE 19:19:11 10° NE
Cosmos 841 Rocket 3.6 19:12:17 10° SSW 19:17:25 80° WNW 19:22:35 10° NNE
Cosmos 2150 Rocket 4.1 19:12:31 10° NNW 19:17:55 85° ENE 19:23:20 10° SSE
USA 81 4.0 19:14:40 10° N 19:19:56 66° E 19:25:09 10° SSE
Cosmos 1953 Rocket 3.6 19:15:58 10° N 19:20:18 83° W 19:24:37 10° S
Meteor 2-5 Rocket 3.7 19:15:04 10° N 19:20:53 69° E 19:26:32 10° SSE
Cosmos 2058 Rocket 3.1 19:17:01 10° S 19:21:21 83° W 19:25:45 10° N
SL-27 R/B 3.8 19:19:25 10° SSE 19:22:06 20° E 19:24:49 10° NE
USA 229 DEB 4.3 19:18:25 10° NW 19:25:35 67° WSW 19:32:51 10° SSE
USA 229 4.3 19:18:31 10° NW 19:25:40 67° WSW 19:32:55 10° SSE
Cosmos 1937 Rocket 3.9 19:21:39 10° NNW 19:26:56 70° WSW 19:32:07 10° S
FengYun 1-2 T 4.5 19:22:56 10° SE 19:28:18 48° ENE 19:33:37 10° N
Cosmos 540 Rocket 3.4 19:25:01 10° S 19:30:02 63° ESE 19:35:05 10° NNE
NOSS 3-1 (A) 4.3 19:22:36 10° NNW 19:30:12 54° NE 19:38:29 10° SE
HJ-1C 4.2 19:28:07 12° SE 19:30:45 29° ENE 19:33:43 10° NNE
ATLAS CENTAUR R/B 3.5 19:18:14 10° NW 19:31:13 59° NE 19:34:58 16° ESE
Cosmos 2184 Rocket 4.0 19:30:01 10° S 19:36:16 75° E 19:42:37 10° N
NOSS 3-1 (C) 4.1 19:30:24 10° NNW 19:38:15 79° ENE 19:46:49 10° SE
Cosmos 1805 3.6 19:38:37 10° SSE 19:42:16 41° E 19:45:57 10° NNE
CZ-3 Stage 3 1.7 19:46:59 10° SW 19:47:59 19° S 19:47:59 19° S
CZ-2D R/B 3.9 19:49:03 30° E 19:49:45 33° ENE 19:53:11 10° N
Cosmos 292 Rocket 4.0 19:48:03 10° S 19:52:37 44° ESE 19:57:13 10° NNE
Cosmos 2327 Rocket 4.5 19:48:52 10° S 19:55:00 84° W 20:01:07 10° N
ATLAS 5 CENTAUR R/B 3.9 19:55:28 10° SSE 19:55:30 10° SSE 19:55:30 10° SSE
BREEZE-M DEB (TANK) 4.3 19:45:11 10° WSW 20:00:33 64° NW 20:04:19 16° NE
ISS -2.8 19:58:03 10° WSW 20:01:12 44° NW 20:02:58 22° NNE
BREEZE-M (TANK) 3.4 19:53:17 10° NW 20:04:59 86° NE 20:06:35 38° SE
OAO 3 Copernicus 4.2 20:01:01 10° W 20:06:06 82° N 20:07:56 40° E
Spot 2 Rocket 3.8 20:08:15 39° E 20:09:09 43° ENE 20:13:54 10° N
Cosmos 962 Rocket 4.5 20:10:02 10° S 20:16:14 59° E 20:22:28 10° NNE
ALOS 4.4 20:12:46 10° SSW 20:16:40 26° W 20:20:35 10° NW
Yuri Rocket 3.6 20:12:23 10° WSW 20:16:45 39° S 20:17:06 38° SSE
SJ-6B 3.6 20:13:04 10° S 20:16:59 51° W 20:20:50 10° NNW
Gbstr 26 Del rocket 4.1 20:12:52 10° SSW 20:16:22 35° SSE 20:16:22 35° SSE
Meteor 1-24 Rocket 4.3 20:12:06 10° NNW 20:17:54 59° W 20:23:28 10° S
H-2A R/B 4.2 20:17:52 10° SSW 20:21:18 36° W 20:24:46 10° NNW
Cosmos 1953 2.6 20:22:56 53° NNE 20:22:56 53° NNE 20:26:08 10° N
SJ 16-02 1.3 20:19:15 10° N 20:23:17 61° NE 20:23:17 61° NE
Resurs 1-3 3.4 20:26:48 73° ENE 20:26:48 73° ENE 20:31:06 10° N
Cosmos 1356 4.5 20:28:45 10° NNW 20:31:16 42° NW 20:31:16 42° NW
Cosmos 372 Rocket 4.2 20:34:04 10° NNW 20:39:17 66° WSW 20:41:01 41° S
Cosmos 1125 Rocket 4.1 20:34:57 10° NNW 20:40:08 57° WSW 20:42:36 30° SSW
Envisat 2.8 20:41:27 84° SE 20:41:34 86° ENE 20:46:40 10° NNW
Cosmos 2154 Rocket 4.5 20:35:39 10° SSW 20:41:45 59° W 20:47:56 10° N
Resurs 01 Rocket 2.4 20:53:18 49° W 20:53:18 49° W 20:57:34 10° NNW
Cosmos 2341 Rocket 4.2 20:49:27 10° SSW 20:55:36 66° W 21:01:47 10° N
Milstar 3 Cent rocket 3.2 20:56:30 10° WSW 20:59:30 31° SW 20:59:30 31° SW
Meteor 2-21 4.4 21:06:46 78° WNW 21:06:46 78° WNW 21:12:52 10° N
ATLAS 2AS CENTAUR R/B 3.4 21:04:31 10° NNW 21:11:15 47° NNE 21:11:15 47° NNE
Centaur D AC-29 4.1 21:47:19 10° WSW 21:48:37 14° WSW 21:48:37 14° WSW
